Regional Weather Roundup
Issued by NWS Burlington, VT

Home | Current Version | Previous Version | Text Only | Print | Product List | Glossary On
Versions: 1 2 3 4 5 6 7 8 9 10 11 12 13 14 15 16 17 18 19 20 21 22 23 24 25 26 27 28 29 30 31 32 33 34 35 36 37 38 39 40 41 42 43 44 45 46 47 48 49 50
000
ASUS41 KBTV 260510
RWRBTV
VERMONT REGIONAL WEATHER ROUNDUP
NATIONAL WEATHER SERVICE BURLINGTON VT
100 AM EDT SAT JUL 26 2014

NOTE: "FAIR" INDICATES FEW OR NO CLOUDS BELOW 12,000 FEET WITH NO
SIGNIFICANT WEATHER AND/OR OBSTRUCTIONS TO VISIBILITY.

* THESE REPORTS ARE NOT UNDER NWS QUALITY CONTROL AND/OR DO NOT
  REPORT WEATHER SUCH AS PRECIPITATION AND FOG.

VTZ001>019-260600-
_____VERMONT_____


CITY           SKY/WX    TMP DP  RH WIND       PRES   REMARKS
BURLINGTON     CLEAR     60  57  89 E5        29.95R
MONTPELIER     CLEAR     63  54  72 SW3       30.00F
MORRISVILLE    CLEAR     56  53  90 CALM      29.98S FOG
ST. JOHNSBURY*   N/A     58  56  93 MISG      29.95S
LYNDONVILLE*   FAIR      60  52  74 CALM      29.99S
MIDDLEBURY*    FAIR      63  57  81 CALM      29.96F
RUTLAND*       CLEAR     57  54  88 SE7       29.99S
SPRINGFIELD    CLEAR     57  55  93 CALM      29.99S
HIGHGATE*      FAIR      66  53  62 S3        29.93S
NEWPORT*       FAIR     N/A N/A N/A S8        29.96S
BENNINGTON     CLEAR     56  54  93 CALM      29.99F FOG
SUTTON*          N/A     55 N/A N/A MISG        N/A

_____LAKE CHAMPLAIN_____


CITY           SKY/WX    TMP DP  RH WIND       PRES   REMARKS
COLCHESTER RF*   N/A     72  61  68 S13         N/A
DIAMOND ISL*     N/A     66  59  77 SE5         N/A

$$

NYZ007-026>031-035-052-083-260600-
_____NORTHERN NEW YORK_____


CITY           SKY/WX    TMP DP  RH WIND       PRES   REMARKS
PLATTSBURGH    CLEAR     66  51  58 CALM      29.93S
SARANAC LAKE   CLEAR     48  47  96 CALM      29.98S
MASSENA        CLEAR     60  54  80 S8        29.93S
OGDENSBURG*    CLEAR     57  55  94 S3        29.94S
POTSDAM*       CLEAR     61  55  82 SW5       29.95S
WATERTOWN      CLEAR     61  51  70 CALM      29.95S
FT DRUM        PTCLDY    60  55  83 S8        29.96S
ALBANY         PTCLDY    65  59  81 CALM      29.98S
GLENS FALLS    CLEAR     58  55  90 CALM      29.97S

$$
NHZ002-005-011-260600-
_____NEW HAMPSHIRE_____


CITY           SKY/WX    TMP DP  RH WIND       PRES   REMARKS
LEBANON        CLEAR     58  54  86 CALM      29.97S
KEENE          CLEAR     57  48  72 CALM      30.00S
MT WASHINGTON  FOG       46  46 100 W37         N/A  VSB 0
PLYMOUTH       FOG       56  55  95 CALM      29.97S VSB<1/4
WHITEFIELD     CLEAR     55  52  89 CALM      29.97S

$$

_____REGIONAL QUEBEC LOCATIONS_____


CITY           SKY/WX    TMP DP  RH WIND       PRES   REMARKS
MONTREAL       CLEAR     66  54  63 SW15G21   29.88F
SHERBROOKE     CLEAR     61  54  77 SW5       29.93S

_____REGIONAL ONTARIO LOCATIONS_____


CITY           SKY/WX    TMP DP  RH WIND       PRES   REMARKS
OTTAWA         PTCLDY    61  54  77 SW8       29.90F

______KEY______
VSB  - VISIBILITY IN MILES
WCI  - WIND CHILL INDEX
HX   - HEAT INDEX
$$



USA.gov is the U.S. government's official web portal to all federal, state and local government web resources and services.